TimeCDT,TemperatureF,Dew PointF,Humidity,Sea Level PressureIn,VisibilityMPH,Wind Direction,Wind SpeedMPH,Gust SpeedMPH,PrecipitationIn,Events,Conditions,WindDirDegrees,DateUTC
1:15 AM,73.8,53.1,48,29.96,10.0,NNE,9.2,-,N/A,,Mostly Cloudy,30,2012-10-19 06:15:00
1:35 AM,73.6,52.5,48,29.96,10.0,NNE,8.1,-,N/A,,Overcast,30,2012-10-19 06:35:00
1:55 AM,73.6,52.0,47,29.96,10.0,NNE,9.2,-,N/A,,Overcast,30,2012-10-19 06:55:00
2:15 AM,73.4,51.8,47,29.96,10.0,NNE,9.2,-,N/A,,Overcast,30,2012-10-19 07:15:00
2:35 AM,73.4,51.4,46,29.96,10.0,NNE,9.2,-,N/A,,Overcast,30,2012-10-19 07:35:00
2:55 AM,72.9,51.8,47,29.96,10.0,NNE,5.8,-,N/A,,Overcast,30,2012-10-19 07:55:00
3:15 AM,72.7,51.8,48,29.95,10.0,NNE,10.4,-,N/A,,Overcast,30,2012-10-19 08:15:00
3:55 AM,72.3,51.3,47,29.95,10.0,NNE,6.9,-,N/A,,Mostly Cloudy,20,2012-10-19 08:55:00
4:15 AM,72.0,51.1,48,29.95,10.0,NNE,8.1,-,N/A,,Overcast,20,2012-10-19 09:15:00
4:35 AM,71.8,50.9,48,29.95,10.0,NNE,8.1,-,N/A,,Overcast,20,2012-10-19 09:35:00
4:55 AM,71.6,50.4,47,29.95,10.0,NNE,10.4,-,N/A,,Overcast,30,2012-10-19 09:55:00
5:15 AM,71.6,49.8,46,29.96,10.0,NNE,8.1,-,N/A,,Overcast,20,2012-10-19 10:15:00
5:35 AM,71.4,49.5,46,29.96,10.0,NNE,8.1,-,N/A,,Overcast,20,2012-10-19 10:35:00
5:55 AM,71.1,49.1,46,29.96,10.0,NNE,9.2,-,N/A,,Overcast,30,2012-10-19 10:55:00
6:15 AM,71.1,49.1,46,29.96,10.0,NNE,11.5,16.1,N/A,,Overcast,30,2012-10-19 11:15:00
6:35 AM,70.9,48.6,45,29.98,10.0,NNE,8.1,-,N/A,,Overcast,30,2012-10-19 11:35:00
6:55 AM,70.9,48.4,45,29.98,10.0,NE,8.1,-,N/A,,Overcast,40,2012-10-19 11:55:00
7:15 AM,70.9,48.2,44,29.98,10.0,NE,8.1,-,N/A,,Overcast,40,2012-10-19 12:15:00
7:35 AM,70.9,48.4,45,29.99,10.0,NE,8.1,-,N/A,,Overcast,50,2012-10-19 12:35:00
7:55 AM,70.7,48.2,45,29.99,10.0,NE,9.2,-,N/A,,Overcast,40,2012-10-19 12:55:00
8:15 AM,70.7,48.4,45,30.00,10.0,NE,8.1,-,N/A,,Overcast,40,2012-10-19 13:15:00
8:35 AM,70.7,48.6,45,30.01,10.0,NE,6.9,-,N/A,,Overcast,40,2012-10-19 13:35:00
8:55 AM,70.9,48.6,45,30.01,10.0,NE,10.4,-,N/A,,Overcast,40,2012-10-19 13:55:00
9:15 AM,71.4,48.4,44,30.02,10.0,ENE,6.9,-,N/A,,Mostly Cloudy,60,2012-10-19 14:15:00
9:35 AM,72.9,48.0,41,30.03,10.0,ENE,6.9,-,N/A,,Mostly Cloudy,70,2012-10-19 14:35:00
9:55 AM,73.4,47.8,40,30.04,10.0,ENE,8.1,-,N/A,,Mostly Cloudy,60,2012-10-19 14:55:00
10:15 AM,73.4,48.6,41,30.04,10.0,ENE,9.2,-,N/A,,Scattered Clouds,60,2012-10-19 15:15:00
10:35 AM,74.5,48.9,40,30.04,10.0,ENE,8.1,-,N/A,,Scattered Clouds,60,2012-10-19 15:35:00
10:55 AM,75.9,50.2,40,30.04,10.0,NE,6.9,-,N/A,,Clear,50,2012-10-19 15:55:00
11:15 AM,77.7,51.8,40,30.03,10.0,East,9.2,-,N/A,,Scattered Clouds,80,2012-10-19 16:15:00
11:35 AM,78.6,52.9,41,30.04,10.0,East,8.1,-,N/A,,Clear,100,2012-10-19 16:35:00
11:55 AM,79.5,53.6,41,30.03,10.0,NE,4.6,-,N/A,,Scattered Clouds,40,2012-10-19 16:55:00
12:15 PM,80.2,55.4,42,30.03,10.0,East,9.2,-,N/A,,Overcast,90,2012-10-19 17:15:00
12:35 PM,80.4,57.4,45,30.02,10.0,East,8.1,-,N/A,,Overcast,80,2012-10-19 17:35:00
12:55 PM,81.5,57.6,44,30.01,10.0,East,6.9,-,N/A,,Overcast,80,2012-10-19 17:55:00
1:15 PM,82.0,57.9,44,30.00,10.0,ENE,8.1,-,N/A,,Overcast,70,2012-10-19 18:15:00
1:35 PM,82.8,58.1,43,29.99,10.0,East,8.1,-,N/A,,Overcast,80,2012-10-19 18:35:00
1:55 PM,82.9,58.8,44,29.98,10.0,East,10.4,-,N/A,,Overcast,100,2012-10-19 18:55:00
2:15 PM,83.3,59.2,44,29.98,10.0,ESE,5.8,-,N/A,,Overcast,110,2012-10-19 19:15:00
2:35 PM,83.3,59.7,45,29.96,10.0,ENE,6.9,-,N/A,,Overcast,60,2012-10-19 19:35:00
2:55 PM,84.2,59.9,44,29.95,10.0,East,5.8,11.5,N/A,,Mostly Cloudy,80,2012-10-19 19:55:00
3:15 PM,83.7,60.1,45,29.95,10.0,ENE,8.1,-,N/A,,Mostly Cloudy,70,2012-10-19 20:15:00
3:35 PM,85.1,59.7,42,29.93,10.0,ENE,9.2,-,N/A,,Mostly Cloudy,70,2012-10-19 20:35:00
4:15 PM,85.1,59.9,42,29.93,10.0,East,6.9,-,N/A,,Mostly Cloudy,100,2012-10-19 21:15:00
4:35 PM,85.5,60.3,42,29.92,10.0,East,10.4,-,N/A,,Mostly Cloudy,100,2012-10-19 21:35:00
4:55 PM,85.1,60.8,44,29.92,10.0,ESE,9.2,-,N/A,,Mostly Cloudy,110,2012-10-19 21:55:00
5:15 PM,85.1,61.0,44,29.92,10.0,East,11.5,-,N/A,,Scattered Clouds,90,2012-10-19 22:15:00
5:35 PM,84.7,61.7,46,29.92,10.0,East,12.7,16.1,N/A,,Scattered Clouds,90,2012-10-19 22:35:00
5:55 PM,83.3,62.4,49,29.92,10.0,East,10.4,-,N/A,,Mostly Cloudy,90,2012-10-19 22:55:00
6:15 PM,82.9,62.6,50,29.92,10.0,East,12.7,-,N/A,,Mostly Cloudy,100,2012-10-19 23:15:00
6:35 PM,81.9,62.6,52,29.92,10.0,East,9.2,-,N/A,,Clear,90,2012-10-19 23:35:00
6:55 PM,81.0,62.2,53,29.93,10.0,East,8.1,-,N/A,,Clear,100,2012-10-19 23:55:00
7:15 PM,80.1,61.9,54,29.93,10.0,East,8.1,-,N/A,,Clear,100,2012-10-20 00:15:00
7:35 PM,79.2,61.5,55,29.94,10.0,East,9.2,-,N/A,,Scattered Clouds,90,2012-10-20 00:35:00
7:55 PM,78.6,60.4,54,29.94,10.0,East,11.5,-,N/A,,Mostly Cloudy,100,2012-10-20 00:55:00
8:15 PM,77.7,59.9,54,29.95,10.0,East,10.4,-,N/A,,Scattered Clouds,100,2012-10-20 01:15:00
8:35 PM,76.8,59.9,56,29.95,10.0,East,11.5,-,N/A,,Clear,100,2012-10-20 01:35:00
9:15 PM,75.2,60.1,59,29.95,10.0,ESE,9.2,-,N/A,,Clear,110,2012-10-20 02:15:00
9:35 PM,74.5,60.3,61,29.96,10.0,ESE,9.2,-,N/A,,Clear,110,2012-10-20 02:35:00
9:55 PM,73.9,60.4,63,29.95,10.0,East,8.1,-,N/A,,Clear,100,2012-10-20 02:55:00
10:15 PM,73.4,60.6,64,29.96,10.0,East,5.8,-,N/A,,Clear,100,2012-10-20 03:15:00
10:35 PM,72.7,60.8,66,29.96,10.0,ESE,4.6,-,N/A,,Clear,110,2012-10-20 03:35:00
10:55 PM,72.0,60.8,68,29.96,10.0,SE,4.6,-,N/A,,Clear,130,2012-10-20 03:55:00
11:15 PM,71.2,60.8,69,29.96,10.0,ESE,4.6,-,N/A,,Clear,120,2012-10-20 04:15:00
11:35 PM,70.9,61.0,71,29.95,10.0,SE,4.6,-,N/A,,Clear,130,2012-10-20 04:35:00
11:55 PM,70.3,61.2,73,29.95,10.0,ESE,4.6,-,N/A,,Clear,120,2012-10-20 04:55:00